User: anonymous   Login
Location: Ostrava
(49.8330°N, 18.2830°E)
Time: 09:11:07
(UTC+02:00)
Language:

Cosmos 2221 - Orbit

View from above orbital plane
View from above orbital plane
View from above satellite
View from above satellite

Ground track
Ground track

The orbit data is extracted from the following two-line orbital elements,

1 22236U 92080A   18142.95450437 +.00000176 +00000-0 +16600-4 0  9998
2 22236 082.5076 098.3461 0015626 316.9413 043.0581 14.87727153356799
Epoch (UTC): 22 May 2018 22:54:29
Eccentricity: 0.0015626
inclination: 82.5076°
perigee height: 594 km
apogee height: 616 km
right ascension of ascending node: 98.3461°
argument of perigee: 316.9413°
revolutions per day: 14.87727153
mean anomaly at epoch: 43.0581°
orbit number at epoch: 35679

The dashed part of the orbit path shows where the satellite is in the earth's shadow,  

DLR